This is the latest recevied weather packets stored in our database for station/object W4DHW-4. If no packets are shown the sender has not sent any weather packets the latest 10 day(s).
| Time | Temp. | Humidity | Pressure | Rain* | Wind** | Luminosity | Snow |
|---|---|---|---|---|---|---|---|
| 1777774809 | 6.67° C | 68% | 1015.2 hPa | 0 mm | - | 0 W/m² | - |
| 1777774506 | 7.22° C | 63% | 1015.4 hPa | 0 mm | - | 0 W/m² | - |
| 1777774203 | 7.22° C | 62% | 1015.1 hPa | 0 mm | - | 0 W/m² | - |
| 1777773900 | 7.22° C | 63% | 1015.2 hPa | 0 mm | - | 0 W/m² | - |
| 1777773597 | 7.78° C | 64% | 1015.2 hPa | 0 mm | - | 0 W/m² | - |
| 1777773294 | 7.78° C | 61% | 1015.1 hPa | 0 mm | - | 0 W/m² | - |
| 1777772990 | 7.78° C | 60% | 1015.2 hPa | 0 mm | - | 0 W/m² | - |
| 1777772687 | 7.78° C | 59% | 1015.3 hPa | 0 mm | - | 0 W/m² | - |
| 1777772385 | 8.33° C | 60% | 1014.9 hPa | 0 mm | - | 0 W/m² | - |
| 1777772082 | 8.89° C | 58% | 1015.1 hPa | 0 mm | - | 0 W/m² | - |
| 1777771779 | 8.89° C | 53% | 1015 hPa | 0 mm | - | 0 W/m² | - |
| 1777771477 | 9.44° C | 50% | 1015.1 hPa | 0 mm | - | 0 W/m² | - |
| 1777771173 | 9.44° C | 50% | 1014.8 hPa | 0 mm | - | 0 W/m² | - |
| 1777770870 | 10° C | 50% | 1014.9 hPa | 0 mm | - | 0 W/m² | - |
| 1777770567 | 10° C | 48% | 1014.8 hPa | 0 mm | - | 0 W/m² | - |
| 1777770264 | 10° C | 48% | 1014.7 hPa | 0 mm | - | 0 W/m² | - |
| 1777769961 | 10° C | 49% | 1014.9 hPa | 0 mm | - | 0 W/m² | - |
| 1777769658 | 10° C | 51% | 1014.8 hPa | 0 mm | - | 0 W/m² | - |
| 1777769355 | 10° C | 52% | 1014.7 hPa | 0 mm | - | 0 W/m² | - |
| 1777769052 | 10° C | 51% | 1014.5 hPa | 0 mm | - | 0 W/m² | - |
| 1777768749 | 10.56° C | 53% | 1014.4 hPa | 0 mm | - | 0 W/m² | - |
| 1777768446 | 10.56° C | 49% | 1014.5 hPa | 0 mm | - | 0 W/m² | - |
| 1777768143 | 10.56° C | 49% | 1014.5 hPa | 0 mm | - | 0 W/m² | - |
| 1777767840 | 11.11° C | 49% | 1014.4 hPa | 0 mm | - | 0 W/m² | - |
| 1777767536 | 11.11° C | 49% | 1014.3 hPa | 0 mm | - | 0 W/m² | - |
* Rain latest hour (hover to see other rain measurements)
** Current wind speed in m/s (hover to see current wind gust speed)